EJU16OK LIPZ-LZIB

Flight info

Callsign EJU16OK
Flight time 0h 48m
Altitude 33000
Route ROSKA DCT RIFEN DCT VAMET DCT KUVEX
Aircraft A320/M-SDE3FGHIRWY/LB1

Departure

Time 2026-05-06 17:55
Airport Venice Marco Polo Airport (LIPZ)

Arrival

Time 2026-05-06 18:43
Airport M. R. Štefánik Airport (LZIB)
Time Latitude Longitude Altitude Speed Heading
2026-05-06 17:24 45.50151 12.34024 16 ft 0 kts 312°
2026-05-06 17:48 45.50136 12.34049 16 ft 4 kts 306°
2026-05-06 17:48 45.50122 12.34082 16 ft 4 kts 292°
2026-05-06 17:48 45.50116 12.34117 18 ft 4 kts 249°
2026-05-06 17:48 45.50123 12.34132 18 ft 1 kts 222°
2026-05-06 17:49 45.50124 12.34133 18 ft 0 kts 222°
2026-05-06 17:51 45.50110 12.34116 19 ft 6 kts 222°
2026-05-06 17:51 45.50065 12.34057 15 ft 12 kts 222°
2026-05-06 17:51 45.49988 12.33958 15 ft 17 kts 223°
2026-05-06 17:51 45.49893 12.33839 15 ft 19 kts 221°
2026-05-06 17:52 45.49791 12.33709 16 ft 20 kts 221°
2026-05-06 17:52 45.49686 12.33610 17 ft 15 kts 220°
2026-05-06 17:52 45.49618 12.33530 16 ft 11 kts 220°
2026-05-06 17:52 45.49553 12.33528 16 ft 10 kts 136°
2026-05-06 17:53 45.49505 12.33613 16 ft 12 kts 130°
2026-05-06 17:53 45.49443 12.33705 15 ft 14 kts 133°
2026-05-06 17:53 45.49428 12.33795 17 ft 7 kts 43°
2026-05-06 17:53 45.49432 12.33799 16 ft 0 kts 39°
2026-05-06 17:54 45.49434 12.33802 16 ft 4 kts 40°
2026-05-06 17:54 45.49607 12.34024 14 ft 71 kts 43°
2026-05-06 17:54 45.50136 12.34704 16 ft 131 kts 41°
2026-05-06 17:55 45.50932 12.35730 44 ft 174 kts 43°
2026-05-06 17:55 45.51828 12.36911 626 ft 176 kts 44°
2026-05-06 17:55 45.52736 12.38130 1268 ft 183 kts 46°
2026-05-06 17:55 45.53611 12.39478 1757 ft 192 kts 64°
2026-05-06 17:56 45.53793 12.41383 2086 ft 202 kts 105°
2026-05-06 17:56 45.53458 12.43367 2631 ft 211 kts 105°
2026-05-06 17:56 45.53187 12.45445 3363 ft 215 kts 103°
2026-05-06 17:56 45.52950 12.47566 4101 ft 219 kts 102°
2026-05-06 17:57 45.52723 12.49729 4852 ft 222 kts 102°
2026-05-06 17:57 45.52501 12.51889 5548 ft 225 kts 101°
2026-05-06 17:57 45.52139 12.54054 6263 ft 225 kts 118°
2026-05-06 17:57 45.51306 12.55973 6715 ft 236 kts 136°
2026-05-06 17:58 45.50124 12.57753 7039 ft 259 kts 137°
2026-05-06 17:58 45.48836 12.59689 7530 ft 275 kts 137°
2026-05-06 17:58 45.47510 12.61699 8313 ft 281 kts 137°
2026-05-06 17:58 45.46165 12.63744 9133 ft 285 kts 137°
2026-05-06 17:59 45.44800 12.65818 9939 ft 289 kts 138°
2026-05-06 17:59 45.43383 12.67966 10343 ft 309 kts 137°
2026-05-06 17:59 45.42154 12.70636 10615 ft 339 kts 114°
2026-05-06 17:59 45.41804 12.74017 11174 ft 357 kts 87°
2026-05-06 18:00 45.42550 12.77418 11852 ft 368 kts 60°
2026-05-06 18:00 45.44002 12.80444 12582 ft 372 kts 54°
2026-05-06 18:00 45.45562 12.83417 13317 ft 376 kts 53°
2026-05-06 18:00 45.47165 12.86380 13980 ft 380 kts 53°
2026-05-06 18:01 45.48792 12.89370 14582 ft 384 kts 53°
2026-05-06 18:01 45.50433 12.92408 15190 ft 388 kts 53°
2026-05-06 18:01 45.52077 12.95484 15790 ft 392 kts 53°
2026-05-06 18:01 45.53170 12.97548 16191 ft 395 kts 53°
2026-05-06 18:02 45.55370 13.01732 16971 ft 401 kts 53°
2026-05-06 18:02 45.57047 13.04938 17557 ft 405 kts 53°
2026-05-06 18:02 45.58741 13.08178 18132 ft 409 kts 53°
2026-05-06 18:02 45.60456 13.11456 18646 ft 413 kts 53°
2026-05-06 18:03 45.62180 13.14754 19163 ft 416 kts 53°
2026-05-06 18:03 45.63353 13.17003 19521 ft 418 kts 53°
2026-05-06 18:03 45.65098 13.20348 20039 ft 421 kts 53°
2026-05-06 18:03 45.66857 13.23717 20549 ft 424 kts 53°
2026-05-06 18:04 45.68629 13.27109 21044 ft 428 kts 53°
2026-05-06 18:04 45.70392 13.30489 21520 ft 431 kts 53°
2026-05-06 18:04 45.72188 13.33943 22004 ft 434 kts 53°
2026-05-06 18:04 45.73995 13.37431 22483 ft 437 kts 53°
2026-05-06 18:05 45.75812 13.40943 22955 ft 440 kts 53°
2026-05-06 18:05 45.77637 13.44473 23419 ft 443 kts 53°
2026-05-06 18:05 45.79482 13.48043 23819 ft 446 kts 53°
2026-05-06 18:05 45.81336 13.51637 24188 ft 449 kts 53°
2026-05-06 18:06 45.83200 13.55253 24546 ft 452 kts 53°
2026-05-06 18:06 45.85079 13.58892 24901 ft 456 kts 53°
2026-05-06 18:06 45.86995 13.62530 25269 ft 458 kts 52°
2026-05-06 18:06 45.88968 13.66135 25628 ft 461 kts 51°
2026-05-06 18:07 45.90985 13.69740 25947 ft 465 kts 51°
2026-05-06 18:07 45.93026 13.73366 26265 ft 468 kts 51°
2026-05-06 18:07 45.95052 13.76976 26612 ft 471 kts 51°
2026-05-06 18:07 45.97109 13.80670 26969 ft 474 kts 51°
2026-05-06 18:08 45.99164 13.84396 27307 ft 477 kts 51°
2026-05-06 18:08 46.01225 13.88156 27589 ft 480 kts 51°
2026-05-06 18:08 46.03294 13.91949 27942 ft 482 kts 52°
2026-05-06 18:08 46.05367 13.95756 28286 ft 485 kts 52°
2026-05-06 18:09 46.07449 13.99581 28614 ft 488 kts 51°
2026-05-06 18:09 46.09552 14.03446 28938 ft 490 kts 51°
2026-05-06 18:09 46.11665 14.07328 29265 ft 493 kts 51°
2026-05-06 18:09 46.13764 14.11179 29571 ft 495 kts 51°
2026-05-06 18:10 46.15895 14.15088 29868 ft 498 kts 51°
2026-05-06 18:10 46.18038 14.19030 30136 ft 499 kts 51°
2026-05-06 18:10 46.20188 14.23000 30403 ft 501 kts 51°
2026-05-06 18:10 46.22334 14.26978 30676 ft 502 kts 52°
2026-05-06 18:11 46.24481 14.30962 30951 ft 503 kts 51°
2026-05-06 18:11 46.26629 14.34952 31245 ft 503 kts 52°
2026-05-06 18:11 46.28752 14.38901 31628 ft 501 kts 52°
2026-05-06 18:11 46.30899 14.42895 32023 ft 500 kts 52°
2026-05-06 18:12 46.33029 14.46863 32440 ft 498 kts 52°
2026-05-06 18:12 46.35147 14.50813 32803 ft 497 kts 52°
2026-05-06 18:12 46.39336 14.58635 32920 ft 484 kts 52°
2026-05-06 18:13 46.43417 14.66271 32901 ft 480 kts 52°
2026-05-06 18:13 46.47501 14.73945 32909 ft 480 kts 52°
2026-05-06 18:14 46.51583 14.81634 32890 ft 480 kts 52°
2026-05-06 18:14 46.55653 14.89328 32890 ft 479 kts 52°
2026-05-06 18:15 46.59706 14.97011 32880 ft 479 kts 52°
2026-05-06 18:15 46.63754 15.04710 32875 ft 479 kts 52°
2026-05-06 18:16 46.67803 15.12411 32877 ft 478 kts 52°
2026-05-06 18:16 46.71840 15.20117 32871 ft 478 kts 52°
2026-05-06 18:17 46.75838 15.27789 32863 ft 478 kts 52°
2026-05-06 18:17 46.79888 15.35481 32860 ft 478 kts 51°
2026-05-06 18:18 46.84071 15.43010 32860 ft 477 kts 50°
2026-05-06 18:18 46.88282 15.50516 32853 ft 477 kts 50°
2026-05-06 18:19 46.92448 15.58062 32853 ft 476 kts 50°
2026-05-06 18:19 46.96590 15.65642 32865 ft 476 kts 51°
2026-05-06 18:20 47.00694 15.73175 32865 ft 476 kts 51°
2026-05-06 18:20 47.04822 15.80754 32867 ft 475 kts 51°
2026-05-06 18:21 47.08936 15.88334 32743 ft 474 kts 51°
2026-05-06 18:21 47.10978 15.92107 32476 ft 471 kts 51°
2026-05-06 18:21 47.13009 15.95864 32213 ft 468 kts 51°
2026-05-06 18:22 47.15035 15.99614 31953 ft 466 kts 51°
2026-05-06 18:22 47.17045 16.03336 31692 ft 464 kts 51°
2026-05-06 18:22 47.19046 16.07048 31434 ft 463 kts 51°
2026-05-06 18:22 47.21040 16.10755 31183 ft 461 kts 51°
2026-05-06 18:23 47.23021 16.14442 30928 ft 459 kts 51°
2026-05-06 18:23 47.24996 16.18123 30675 ft 458 kts 51°
2026-05-06 18:23 47.26965 16.21798 30425 ft 456 kts 51°
2026-05-06 18:23 47.28925 16.25456 30186 ft 454 kts 51°
2026-05-06 18:24 47.30874 16.29098 29608 ft 452 kts 51°
2026-05-06 18:24 47.32809 16.32723 29056 ft 449 kts 52°
2026-05-06 18:24 47.34730 16.36332 28500 ft 445 kts 52°
2026-05-06 18:24 47.36635 16.39918 27964 ft 442 kts 52°
2026-05-06 18:25 47.38526 16.43482 27421 ft 439 kts 52°
2026-05-06 18:25 47.40397 16.47010 26925 ft 435 kts 52°
2026-05-06 18:25 47.42259 16.50519 26417 ft 432 kts 52°
2026-05-06 18:25 47.44102 16.53997 25818 ft 430 kts 52°
2026-05-06 18:26 47.45975 16.57539 24723 ft 443 kts 52°
2026-05-06 18:26 47.47875 16.61137 24192 ft 440 kts 52°
2026-05-06 18:26 47.49743 16.64672 23783 ft 433 kts 52°
2026-05-06 18:26 47.51579 16.68151 23081 ft 425 kts 52°
2026-05-06 18:27 47.53387 16.71580 22111 ft 419 kts 52°
2026-05-06 18:27 47.55143 16.74918 21222 ft 414 kts 52°
2026-05-06 18:27 47.56898 16.78262 20358 ft 408 kts 52°
2026-05-06 18:27 47.58628 16.81564 19509 ft 403 kts 53°
2026-05-06 18:28 47.60336 16.84827 18707 ft 398 kts 53°
2026-05-06 18:28 47.62025 16.88054 17891 ft 394 kts 53°
2026-05-06 18:28 47.63690 16.91244 17028 ft 389 kts 53°
2026-05-06 18:28 47.65337 16.94401 16189 ft 385 kts 53°
2026-05-06 18:29 47.66968 16.97532 15375 ft 381 kts 53°
2026-05-06 18:29 47.68579 17.00626 14482 ft 381 kts 53°
2026-05-06 18:29 47.70231 17.03803 13695 ft 392 kts 54°
2026-05-06 18:29 47.71901 17.07016 13121 ft 392 kts 53°
2026-05-06 18:30 47.73561 17.10208 12594 ft 389 kts 54°
2026-05-06 18:30 47.75206 17.13383 12063 ft 387 kts 54°
2026-05-06 18:30 47.76836 17.16531 11680 ft 380 kts 54°
2026-05-06 18:30 47.78424 17.19596 11553 ft 367 kts 54°
2026-05-06 18:31 47.79953 17.22548 11423 ft 354 kts 54°
2026-05-06 18:31 47.81413 17.25375 11191 ft 337 kts 54°
2026-05-06 18:31 47.82881 17.28056 10824 ft 340 kts 44°
2026-05-06 18:31 47.84868 17.30106 10585 ft 354 kts 23°
2026-05-06 18:32 47.87111 17.31556 10341 ft 357 kts 21°
2026-05-06 18:32 47.89398 17.32996 10100 ft 356 kts 21°
2026-05-06 18:32 47.91641 17.34404 9900 ft 341 kts 21°
2026-05-06 18:32 47.93790 17.35753 9782 ft 329 kts 21°
2026-05-06 18:33 47.95870 17.37065 9658 ft 322 kts 21°
2026-05-06 18:33 47.97923 17.38363 9525 ft 320 kts 21°
2026-05-06 18:33 47.99965 17.39656 9299 ft 318 kts 21°
2026-05-06 18:33 48.01995 17.40942 8935 ft 316 kts 21°
2026-05-06 18:34 48.04016 17.42225 8558 ft 315 kts 21°
2026-05-06 18:34 48.06024 17.43500 8182 ft 313 kts 21°
2026-05-06 18:34 48.08030 17.44778 7792 ft 312 kts 22°
2026-05-06 18:34 48.10028 17.46056 7399 ft 311 kts 21°
2026-05-06 18:35 48.12014 17.47324 7033 ft 310 kts 21°
2026-05-06 18:35 48.13995 17.48588 6635 ft 309 kts 21°
2026-05-06 18:35 48.15968 17.49846 6260 ft 308 kts 21°
2026-05-06 18:35 48.17932 17.51099 5878 ft 306 kts 22°
2026-05-06 18:36 48.19887 17.52349 5479 ft 305 kts 21°
2026-05-06 18:36 48.21835 17.53595 5073 ft 304 kts 22°
2026-05-06 18:36 48.23825 17.54577 4681 ft 299 kts
2026-05-06 18:36 48.25890 17.54741 4237 ft 297 kts 357°
2026-05-06 18:37 48.27935 17.54540 3804 ft 291 kts 340°
2026-05-06 18:37 48.29153 17.53789 3535 ft 282 kts 321°
2026-05-06 18:37 48.30759 17.50971 3055 ft 258 kts 282°
2026-05-06 18:37 48.31276 17.48390 3005 ft 259 kts 276°
2026-05-06 18:38 48.31550 17.45818 3007 ft 237 kts 262°
2026-05-06 18:38 48.31351 17.43511 3003 ft 211 kts 246°
2026-05-06 18:38 48.30809 17.41598 3005 ft 189 kts 232°
2026-05-06 18:38 48.30022 17.40089 3008 ft 181 kts 219°
2026-05-06 18:39 48.29129 17.38800 3003 ft 180 kts 220°
2026-05-06 18:39 48.28227 17.37492 3009 ft 181 kts 220°
2026-05-06 18:39 48.27317 17.36172 2897 ft 182 kts 220°
2026-05-06 18:40 48.25491 17.33528 2458 ft 183 kts 220°
2026-05-06 18:40 48.24580 17.32209 2225 ft 181 kts 219°
2026-05-06 18:40 48.23701 17.30934 2006 ft 168 kts 219°
2026-05-06 18:40 48.22909 17.29787 1795 ft 149 kts 219°
2026-05-06 18:41 48.22193 17.28751 1607 ft 139 kts 218°
2026-05-06 18:41 48.21505 17.27761 1420 ft 135 kts 219°
2026-05-06 18:41 48.20826 17.26783 1247 ft 137 kts 218°
2026-05-06 18:41 48.20151 17.25802 1062 ft 135 kts 218°
2026-05-06 18:42 48.19476 17.24825 841 ft 135 kts 217°
2026-05-06 18:42 48.18797 17.23853 685 ft 133 kts 218°
2026-05-06 18:42 48.18123 17.22894 540 ft 134 kts 218°
2026-05-06 18:42 48.17478 17.21948 420 ft 125 kts 216°
2026-05-06 18:43 48.16964 17.21218 422 ft 76 kts 226°
2026-05-06 18:43 48.16708 17.20849 419 ft 26 kts 225°
2026-05-06 18:43 48.16593 17.20684 425 ft 13 kts 224°
2026-05-06 18:43 48.16562 17.20634 426 ft 6 kts 239°
2026-05-06 18:44 48.16575 17.20580 425 ft 5 kts 302°
2026-05-06 18:44 48.16596 17.20542 426 ft 4 kts 311°
2026-05-06 18:44 48.16614 17.20512 427 ft 4 kts 313°
2026-05-06 18:44 48.16650 17.20456 428 ft 6 kts 313°
2026-05-06 18:45 48.16656 17.20446 425 ft 0 kts 313°
2026-05-06 18:45 48.16660 17.20438 424 ft 4 kts 313°
2026-05-06 18:45 48.16690 17.20391 427 ft 6 kts 313°
2026-05-06 18:45 48.16710 17.20360 433 ft 6 kts 315°
2026-05-06 18:46 48.16748 17.20305 427 ft 8 kts 317°
2026-05-06 18:46 48.16810 17.20217 432 ft 15 kts 315°
2026-05-06 18:46 48.16857 17.20145 427 ft 6 kts 311°
2026-05-06 18:46 48.16858 17.20099 432 ft 4 kts 277°
2026-05-06 18:47 48.16871 17.20072 432 ft 4 kts 312°
2026-05-06 18:47 48.16886 17.20048 425 ft 2 kts 314°
2026-05-06 18:47 48.16888 17.20045 432 ft 0 kts 314°